Location: Cutler
(25.6150°N, 80.3110°W)
Time: 02:33:36
(UTC-04:00)

Cosmos 2360 Rocket - Visible Passes

Search period start: 25 April 2015 00:00
Search period end: 05 May 2015 00:00
Orbit: 833 x 846 km, 71.0° (Epoch: 24 April)

Date Brightness Start Highest point End Pass type
(mag) Time Alt. Az. Time Alt. Az. Time Alt. Az.
25 Apr 4.6 03:19:44 17° ENE 03:19:44 17° ENE 03:21:38 10° NE visible
25 Apr 2.9 05:01:32 36° WNW 05:01:32 36° WNW 05:06:26 10° N visible
26 Apr 4.8 03:04:47 13° ENE 03:04:47 13° ENE 03:05:49 10° ENE visible
26 Apr 3.0 04:46:35 36° NW 04:46:35 36° NW 04:50:53 10° N visible
27 Apr 5.0 02:49:47 11° ENE 02:49:47 11° ENE 02:49:59 10° ENE visible
27 Apr 3.2 04:31:34 34° NNW 04:31:34 34° NNW 04:35:19 10° N visible
28 Apr 3.4 04:16:30 31° NNW 04:16:30 31° NNW 04:19:45 10° N visible
29 Apr 3.7 04:01:23 28° N 04:01:23 28° N 04:04:11 10° N visible
30 Apr 3.9 03:46:14 25° N 03:46:14 25° N 03:48:36 10° N visible
01 May 4.2 03:31:01 22° N 03:31:01 22° N 03:33:01 10° N visible
02 May 4.4 03:15:48 20° N 03:15:48 20° N 03:17:26 10° N visible
03 May 4.6 03:00:32 17° N 03:00:32 17° N 03:01:50 10° NNE visible
04 May 4.7 02:45:14 16° NNE 02:45:14 16° NNE 02:46:14 10° NNE visible
